EDT,Max TemperatureF,Mean TemperatureF,Min TemperatureF,Max Dew PointF,MeanDew PointF,Min DewpointF,Max Humidity, Mean Humidity, Min Humidity, Max Sea Level PressureIn, Mean Sea Level PressureIn, Min Sea Level PressureIn, Max VisibilityMiles, Mean VisibilityMiles, Min VisibilityMiles, Max Wind SpeedMPH, Mean Wind SpeedMPH, Max Gust SpeedMPH,PrecipitationIn, CloudCover, Events, WindDirDegrees
2012-4-1,69,56,44,59,51,43,100,89,64,29.93,29.87,29.76,10,6,1,15,2,23,0.00,3,Rain-Thunderstorm,117
2012-4-2,78,66,55,64,59,54,100,79,54,29.88,29.83,29.75,10,10,7,12,2,17,0.00,3,,36
2012-4-3,80,68,57,64,58,52,88,73,44,29.98,29.92,29.85,10,10,10,16,2,26,0.00,2,Rain-Thunderstorm,276
2012-4-4,78,68,57,61,57,55,94,72,44,29.93,29.84,29.72,10,10,10,10,3,,0.00,2,,246
2012-4-5,62,56,50,59,53,41,100,84,58,29.84,29.77,29.72,10,9,5,17,6,22,0.00,8,Rain-Thunderstorm,48
2012-4-6,60,48,37,37,34,32,81,59,36,30.13,30.03,29.88,10,10,10,16,9,22,0.00,0,,26
2012-4-7,68,50,33,32,31,21,93,55,17,30.30,30.24,30.20,10,10,10,6,2,,0.00,0,,27
2012-4-8,68,54,41,45,38,30,87,58,28,30.22,30.19,30.16,10,10,10,14,2,20,0.00,3,,340
2012-4-9,68,50,33,41,34,27,100,56,23,30.18,30.09,29.99,10,10,10,20,4,28,0.00,0,,271
2012-4-10,62,52,41,39,28,19,81,45,19,30.09,30.03,29.97,10,10,10,20,4,30,0.00,2,,312
2012-4-11,50,42,33,32,26,21,87,58,35,30.25,30.18,30.06,10,10,10,15,4,23,0.00,2,,19
2012-4-12,60,45,30,34,29,27,100,64,29,30.32,30.24,30.15,10,10,10,8,1,16,0.00,0,,35
2012-4-13,68,50,32,39,33,28,100,56,23,30.26,30.21,30.16,10,10,10,9,1,,0.00,0,,119
2012-4-14,77,64,51,48,42,36,67,45,33,30.21,30.15,30.05,10,10,10,15,4,23,0.00,4,,206
2012-4-15,80,70,59,54,49,45,63,50,30,30.14,30.07,30.03,10,10,10,16,6,25,0.00,1,,197
2012-4-16,75,66,57,61,54,46,83,60,36,30.22,30.09,30.00,10,10,7,22,11,34,0.00,2,Rain,228
2012-4-17,59,56,53,50,44,41,88,67,51,30.34,30.28,30.23,10,10,10,12,4,21,0.00,6,Rain,36
2012-4-18,68,59,50,48,43,39,88,58,37,30.22,30.14,30.07,10,10,10,10,5,9,0.00,4,Rain,41
2012-4-19,71,56,41,50,43,37,100,68,29,30.13,30.05,29.95,10,8,0,10,1,17,0.00,2,Fog,103
2012-4-20,75,62,48,54,50,45,94,66,44,29.95,29.88,29.80,10,10,7,15,4,20,0.00,3,,212
2012-4-21,60,53,46,54,48,43,94,86,72,29.93,29.88,29.81,10,10,7,12,5,,0.00,8,Rain,3
2012-4-22,50,46,42,43,37,32,93,74,50,29.91,29.86,29.83,10,10,7,16,8,23,0.00,8,Rain,14
2012-4-23,55,46,37,32,26,19,81,48,25,29.87,29.84,29.82,10,10,10,22,8,30,0.00,5,,317
2012-4-24,62,48,35,48,37,28,94,64,32,29.87,29.84,29.83,10,10,7,18,5,32,0.00,6,Rain,271
2012-4-25,78,62,46,59,52,46,100,74,42,29.87,29.81,29.74,10,10,7,14,5,17,0.00,4,Rain-Thunderstorm,185
2012-4-26,77,68,59,64,58,50,100,76,56,29.97,29.81,29.68,10,10,7,23,9,37,0.00,5,Rain-Thunderstorm,241
2012-4-27,68,56,44,50,40,34,71,55,33,30.16,30.09,29.97,10,10,10,10,7,17,0.00,0,,30
2012-4-28,80,66,51,61,50,37,83,56,39,30.09,30.04,29.96,10,10,10,20,5,28,0.00,3,,217
2012-4-29,80,68,55,61,57,52,94,67,37,30.17,30.12,30.09,10,10,10,9,1,,0.00,2,,331
2012-4-30,80,68,57,63,59,55,100,69,42,30.15,30.09,30.02,10,10,4,17,4,24,0.00,2,Rain-Thunderstorm,228